Content
SEND FEEDBACK

Daily
Averages
Monthly
Summary
United States of America

PLACERVILLE, CALIFORNIA


Home > North America > United States > California
Elevation: 2590 feet     Latitude: 38 43N     Longitude: 120 45W

WEATHER
 
SELECT A DAY
Number of Records: 93,564;   Date Range: 7/10/09 - 7/24/14
 
SHARE

PRINT THIS DATA

[ ← Previous Day ]
WEATHER ALMANAC - FEBRUARY 1, 2013
[ Next Day → ]
[ °C ]   °F
Weather ElementAverageHighLow
Temperature53.9 °F62.6 °F (10:35 am)46.4 °F (12:35 am)
Dewpoint29.9 °F37.4 °F (5:15 pm)19.4 °F (4:35 am)
Humidity40.9 %58 % (6:55 pm)27 % (9:15 am)
Barometer30.22 in30.26 in (9:35 pm)30.18 in (2:55 pm)
Wind Speed5.8 mph9.2 mph (12:15 pm)
Weather ElementAverage
Visibility10 mi
Wind DirectionSE (136.2 °)

Weather ElementTotal
Precipitation---
Heating Degree Days10.5 (Base 65)
Growing Degree Days4.5 (Base 50)
Averaged from 69 records on February 1, 2013
WEATHER CONDITIONS BREAKOUT
WIND DIRECTION BREAKOUT
WEATHER BY HOUR - FEBRUARY 1, 2013
[ °C ]   °F
Local TimeTemperatureDewpointHumidityBarometerVisibilityWind DirectionWind SpeedGust SpeedPrecipitationEventsConditions
12:35 AM46.4 °F30.2 °F53 %30.22 in10.0 miEast (100°)8.1 mphClear
12:55 AM48.2 °F28.4 °F46 %30.22 in10.0 miEast (90°)8.1 mphClear
1:15 AM48.2 °F28.4 °F46 %30.22 in10.0 miEast (90°)8.1 mphClear
1:35 AM50.0 °F26.6 °F40 %30.22 in10.0 miEast (90°)8.1 mphClear
1:55 AM48.2 °F24.8 °F40 %30.22 in10.0 miEast (80°)6.9 mphClear
2:15 AM50.0 °F24.8 °F37 %30.22 in10.0 miEast (80°)6.9 mphClear
2:35 AM48.2 °F23.0 °F37 %30.22 in10.0 miEast (80°)6.9 mphClear
2:55 AM48.2 °F23.0 °F37 %30.21 in10.0 miEast (80°)5.8 mphClear
3:15 AM48.2 °F23.0 °F37 %30.21 in10.0 miEast (90°)6.9 mphClear
3:35 AM46.4 °F23.0 °F40 %30.21 in10.0 miEast (90°)6.9 mphClear
3:55 AM48.2 °F21.2 °F34 %30.21 in10.0 miEast (100°)8.1 mphClear
4:15 AM48.2 °F21.2 °F34 %30.21 in10.0 miEast (100°)6.9 mphClear
4:35 AM48.2 °F19.4 °F32 %30.21 in10.0 miEast (90°)6.9 mphClear
4:55 AM48.2 °F21.2 °F34 %30.21 in10.0 miEast (100°)6.9 mphClear
5:15 AM48.2 °F19.4 °F32 %30.21 in10.0 miEast (80°)6.9 mphClear
5:35 AM48.2 °F19.4 °F32 %30.21 in10.0 miEast (100°)8.1 mphClear
5:55 AM46.4 °F19.4 °F34 %30.22 in10.0 miEast (90°)8.1 mphClear
6:15 AM46.4 °F23.0 °F40 %30.22 in10.0 miEast (100°)8.1 mphClear
6:35 AM46.4 °F23.0 °F40 %30.23 in10.0 miEast (100°)8.1 mphClear
6:55 AM46.4 °F23.0 °F40 %30.22 in10.0 miEast (90°)8.1 mphClear
7:15 AM46.4 °F23.0 °F40 %30.23 in10.0 miEast (90°)8.1 mphClear
7:35 AM46.4 °F23.0 °F40 %30.23 in10.0 miEast (90°)8.1 mphClear
7:55 AM50.0 °F21.2 °F32 %30.24 in10.0 miEast (100°)5.8 mphClear
8:15 AM50.0 °F23.0 °F35 %30.24 in10.0 miEast (100°)6.9 mphClear
8:35 AM53.6 °F23.0 °F30 %30.24 in10.0 miEast (80°)4.6 mphClear
8:55 AM55.4 °F23.0 °F29 %30.25 in10.0 miENE (70°)3.5 mphClear
9:15 AM57.2 °F23.0 °F27 %30.25 in10.0 miCalmClear
9:35 AM59.0 °F24.8 °F27 %30.24 in10.0 miESE (120°)3.5 mphClear
9:55 AM59.0 °F26.6 °F29 %30.24 in10.0 miENE (70°)3.5 mphClear
10:15 AM60.8 °F28.4 °F29 %30.24 in10.0 miSouth (180°)3.5 mphClear
10:35 AM62.6 °F30.2 °F30 %30.24 in10.0 miSSW (200°)3.5 mphClear
10:55 AM59.0 °F32.0 °F36 %30.24 in10.0 miCalmClear
11:15 AM60.8 °F32.0 °F34 %30.23 in10.0 miSW (230°)4.6 mphClear
11:35 AM62.6 °F32.0 °F32 %30.23 in10.0 miWest (270°)4.6 mphClear
11:55 AM62.6 °F32.0 °F32 %30.23 in10.0 miWest (260°)3.5 mphClear
12:15 PM62.6 °F32.0 °F32 %30.22 in10.0 miWest (270°)9.2 mphClear
12:35 PM62.6 °F33.8 °F34 %30.21 in10.0 miWest (260°)5.8 mphClear
12:55 PM60.8 °F33.8 °F36 %30.21 in10.0 miWNW (290°)5.8 mphClear
1:35 PM60.8 °F32.0 °F34 %30.20 in10.0 miWNW (290°)5.8 mphClear
1:55 PM62.6 °F33.8 °F34 %30.19 in10.0 miNW (310°)5.8 mphClear
2:15 PM62.6 °F33.8 °F34 %30.19 in10.0 miNW (320°)4.6 mphClear
2:35 PM62.6 °F33.8 °F34 %30.19 in10.0 miWest (280°)3.5 mphClear
2:55 PM62.6 °F35.6 °F37 %30.18 in10.0 miWNW (300°)4.6 mphClear
3:15 PM60.8 °F35.6 °F39 %30.18 in10.0 miNW (310°)4.6 mphClear
3:35 PM60.8 °F35.6 °F39 %30.18 in10.0 miWNW (290°)5.8 mphClear
3:55 PM59.0 °F35.6 °F42 %30.18 in10.0 miWNW (300°)5.8 mphClear
4:15 PM59.0 °F35.6 °F42 %30.19 in10.0 miWNW (300°)4.6 mphClear
4:55 PM57.2 °F35.6 °F44 %30.19 in10.0 miCalmClear
5:15 PM55.4 °F37.4 °F51 %30.18 in10.0 miNorth (350°)3.5 mphClear
5:35 PM55.4 °F35.6 °F47 %30.18 in10.0 miNorth (10°)4.6 mphClear
5:55 PM55.4 °F35.6 °F47 %30.19 in10.0 miNNE (20°)4.6 mphClear
6:15 PM55.4 °F35.6 °F47 %30.20 in10.0 miENE (70°)6.9 mphClear
6:35 PM55.4 °F35.6 °F47 %30.20 in10.0 miEast (100°)4.6 mphClear
6:55 PM51.8 °F37.4 °F58 %30.22 in10.0 miSE (140°)4.6 mphClear
7:15 PM53.6 °F37.4 °F54 %30.22 in10.0 miESE (110°)3.5 mphClear
7:35 PM53.6 °F37.4 °F54 %30.24 in10.0 miSE (130°)3.5 mphClear
7:55 PM53.6 °F37.4 °F54 %30.25 in10.0 miSE (130°)5.8 mphClear
8:15 PM51.8 °F37.4 °F58 %30.25 in10.0 miESE (110°)5.8 mphClear
8:35 PM53.6 °F37.4 °F54 %30.25 in10.0 miESE (110°)4.6 mphClear
8:55 PM51.8 °F37.4 °F58 %30.25 in10.0 miEast (100°)6.9 mphClear
9:15 PM53.6 °F37.4 °F54 %30.25 in10.0 miESE (110°)6.9 mphClear
9:35 PM53.6 °F37.4 °F54 %30.26 in10.0 miEast (100°)6.9 mphClear
9:55 PM53.6 °F37.4 °F54 %30.25 in10.0 miEast (90°)6.9 mphClear
10:15 PM51.8 °F37.4 °F58 %30.25 in10.0 miEast (90°)8.1 mphClear
10:35 PM53.6 °F35.6 °F51 %30.25 in10.0 miEast (80°)6.9 mphClear
10:55 PM51.8 °F33.8 °F50 %30.25 in10.0 miEast (80°)6.9 mphClear
11:15 PM53.6 °F32.0 °F44 %30.25 in10.0 miEast (80°)8.1 mphClear
11:35 PM51.8 °F32.0 °F47 %30.25 in10.0 miEast (90°)6.9 mphClear
11:55 PM50.0 °F32.0 °F50 %30.25 in10.0 miEast (100°)5.8 mphClear
Hourly data recorded from KPVF, located miles away from Placerville, California







STORIES FROM OUR PARTNERS